Location: Peebles
(55.6412°N, 3.1714°W)
Time: 05:35:22
(UTC+00:00)

MOZHAYETS 4 - Visible Passes

Search period start: 10 December 2023 00:00
Search period end: 20 December 2023 00:00
Orbit: 656 x 672 km, 98.3° (Epoch: 09 December)

Date Brightness Start Highest point End Pass type
(mag) Time Alt. Az. Time Alt. Az. Time Alt. Az.
10 Dec 9.0 17:21:03 10° N 17:25:22 40° WNW 17:29:39 10° SW visible
11 Dec 9.8 17:52:13 10° N 17:55:58 25° WNW 17:59:41 10° WSW visible
12 Dec 8.0 16:45:34 10° NNE 16:50:12 74° WNW 16:54:48 10° SSW visible
12 Dec 10.3 18:23:39 10° NNW 18:26:27 16° NW 18:29:16 10° W visible
13 Dec 8.9 17:16:34 10° N 17:20:57 43° WNW 17:25:17 10° SW visible
13 Dec 10.6 18:55:54 10° NNW 18:56:50 11° NW 18:57:46 10° NW visible
14 Dec 9.6 17:47:42 10° N 17:51:33 27° WNW 17:55:23 10° WSW visible
15 Dec 7.9 16:41:06 10° NNE 16:45:44 80° WNW 16:50:20 10° SSW visible
15 Dec 10.2 18:19:04 10° N 18:22:03 17° NW 18:25:02 10° W visible
16 Dec 8.7 17:12:04 10° N 17:16:29 46° WNW 17:20:53 10° SW visible
16 Dec 10.5 18:51:01 10° NNW 18:52:26 11° NW 18:53:51 10° WNW visible
17 Dec 9.5 17:43:10 10° N 17:47:07 29° WNW 17:51:03 10° WSW visible
18 Dec 7.8 16:36:38 10° NNE 16:41:16 87° WNW 16:45:52 10° SSW visible
18 Dec 10.1 18:14:29 10° N 18:17:38 18° NW 18:20:47 10° W visible
19 Dec 8.6 17:07:33 10° N 17:12:02 50° WNW 17:16:28 10° SW visible
19 Dec 10.5 18:46:16 10° NNW 18:48:02 12° NW 18:49:47 10° WNW visible
